Weather History for Dickinson, ND

Change the Weather History Date:

Tuesday, November 20, 2012

  Actual Average Record
Temperature  
Mean Temperature 45 °F 27 °F  
Max Temperature 62 °F 37 °F 65 °F (1908)
Min Temperature 28 °F 17 °F -15 °F (1937)
Degree Days  
Heating Degree Days 20 38  
Month to date heating degree days 599 660  
Since 1 July heating degree days 1536 1671  
Cooling Degree Days 0 0  
Month to date cooling degree days 0 0  
Year to date cooling degree days 591 419  
Moisture  
Dew Point 29 °F    
Average Humidity 55    
Maximum Humidity 78    
Minimum Humidity 32    
Precipitation  
Precipitation 0.00 in 0.02 in 0.35 in (1977)
Month to date precipitation 0.22 0.43  
Year to date precipitation 10.15 15.42  
Sea Level Pressure  
Sea Level Pressure 29.92 in    
Wind  
Wind Speed 8 mph (SSW)    
Max Wind Speed 16 mph    
Max Gust Speed 20 mph    
Visibility 10 miles    
Events      
T = Trace of Precipitation, MM = Missing Value Source: NWS Daily Summary

Daily Weather History Graph

Daily Weather History Graph

Search for Another Location

Airport:

Trip Planner

Search our weather history database for the weather conditions in past years. The results will help you decide how hot, cold, wet, or windy it might be!

Date:

Astronomy

Nov. 20, 2012 Rise Set
Actual Time 7:01 AM MST 4:11 PM MST
Civil Twilight 6:28 AM MST 4:45 PM MST
Nautical Twilight 5:51 AM MST 5:22 PM MST
Astronomical Twilight 5:14 AM MST 5:58 PM MST
Moon 12:23 PM MST (11/20) No Moon Set
Length of Visible Light 10h 16m
Length of Day
9h 09m
First Quarter, 52% of the Moon is Illuminated
Nov 20
First Quarter
Nov 28
Full
Dec 6
Last Quarter
Dec 13
New
Dec 19
First Quarter

Hourly Weather History & Observations

Time (MST) Temp. Windchill Dew Point Humidity Pressure Visibility Wind Dir Wind Speed Gust Speed Precip Events Conditions
12:56 AM 34.0 °F 26.6 °F 25.0 °F 70% 30.00 in 10.0 mi South 9.2 mph - N/A   Clear
1:56 AM 35.1 °F 26.4 °F 25.0 °F 67% 29.99 in 10.0 mi South 12.7 mph - N/A   Clear
2:56 AM 35.1 °F 26.4 °F 26.1 °F 70% 29.97 in 10.0 mi South 12.7 mph - N/A   Clear
3:56 AM 36.0 °F 27.1 °F 26.1 °F 67% 29.97 in 10.0 mi South 13.8 mph - N/A   Clear
4:56 AM 35.1 °F 25.5 °F 26.1 °F 70% 29.97 in 10.0 mi South 15.0 mph - N/A   Clear
5:56 AM 32.0 °F 25.6 °F 25.0 °F 75% 29.98 in 10.0 mi South 6.9 mph - N/A   Clear
6:56 AM 30.0 °F 25.2 °F 24.1 °F 79% 29.96 in 10.0 mi South 4.6 mph - N/A   Clear
7:56 AM 33.1 °F 30.0 °F 26.1 °F 75% 29.97 in 10.0 mi South 3.5 mph - N/A   Clear
8:56 AM 39.9 °F 37.8 °F 28.9 °F 65% 29.96 in 10.0 mi Variable 3.5 mph - N/A   Clear
9:56 AM 51.1 °F - 30.9 °F 46% 29.94 in 10.0 mi SW 9.2 mph - N/A   Clear
10:56 AM 55.0 °F - 32.0 °F 42% 29.91 in 10.0 mi SW 6.9 mph - N/A   Clear
11:56 AM 60.1 °F - 32.0 °F 35% 29.89 in 10.0 mi SW 6.9 mph - N/A   Clear
1:56 PM 62.1 °F - 32.0 °F 32% 29.87 in 10.0 mi West 11.5 mph - N/A   Clear
2:56 PM 57.9 °F - 32.0 °F 37% 29.87 in 10.0 mi West 8.1 mph - N/A   Clear
3:56 PM 54.0 °F - 32.0 °F 43% 29.89 in 10.0 mi Calm Calm - N/A   Clear
4:56 PM 48.9 °F - 32.0 °F 52% 29.90 in 10.0 mi WSW 4.6 mph - N/A   Clear
5:56 PM 39.9 °F 33.4 °F 30.0 °F 68% 29.93 in 10.0 mi SSW 10.4 mph - N/A   Clear
6:56 PM 42.1 °F 37.1 °F 30.9 °F 65% 29.92 in 10.0 mi SSW 8.1 mph - N/A   Clear
7:56 PM 41.0 °F 35.8 °F 30.0 °F 65% 29.91 in 10.0 mi South 8.1 mph - N/A   Clear
8:56 PM 43.0 °F - 30.0 °F 60% 29.88 in 10.0 mi Calm Calm - N/A   Clear
9:56 PM 39.9 °F 34.5 °F 30.9 °F 70% 29.86 in 10.0 mi South 8.1 mph - N/A   Clear
10:56 PM 43.0 °F 38.8 °F 30.9 °F 62% 29.83 in 10.0 mi SSW 6.9 mph - N/A   Clear
11:56 PM 46.0 °F 41.0 °F 30.9 °F 56% 29.81 in 10.0 mi South 10.4 mph - N/A   Clear